Location: Carroll
(32.4774°N, 95.5202°W)
Time: 05:34:57
(UTC+02:00)

Daily predictions for brighter satellites

Satellite Brightness Start Highest point End
(mag) Time Altitude Azimuth Time Altitude Azimuth Time Altitude Azimuth
Meteor 1-28 Rocket 3.6 03:06:05 10° N 03:09:52 69° WNW 03:13:36 10° SSW
OAO 2 Rocket 3.6 03:07:25 10° W 03:12:20 65° N 03:17:21 10° E
Cosmos 1544 Rocket 4.3 03:10:10 10° SSW 03:14:28 59° W 03:18:51 10° N
RESURS DK-1 4.2 03:12:09 10° NNE 03:14:41 16° ENE 03:17:13 10° E
Cosmos 2123 Rocket 4.0 03:10:51 10° N 03:16:58 60° E 03:23:03 10° SSE
Tiangong 1 3.1 03:15:49 10° NNW 03:18:06 18° NNE 03:20:22 10° ENE
Helios 1A 2.9 03:17:43 10° SSE 03:21:51 71° ENE 03:26:02 10° N
FREGAT/IRIS 3.3 03:19:40 10° S 03:22:45 59° W 03:25:52 10° NNW
Cosmos 1500 4.0 03:19:40 10° SSE 03:22:57 30° E 03:26:16 10° NNE
Cosmos 1461 3.6 03:21:38 10° NW 03:25:31 51° WSW 03:29:18 10° S
Cosmos 2322 Rocket 3.7 03:25:01 10° SE 03:27:45 14° E 03:30:28 10° ENE
Cosmos 2227 Rocket 2.3 03:23:05 10° NNW 03:28:46 83° WSW 03:34:24 10° SSE
Cosmos 1934 Rocket 4.5 03:22:45 10° SSW 03:28:50 66° W 03:35:04 10° N
Cosmos 2298 Rocket 4.5 03:25:41 10° N 03:30:43 42° ENE 03:35:44 10° SE
CZ-2D R/B 4.0 03:30:20 10° SE 03:33:49 33° ENE 03:37:20 10° N
Resurs 01 Rocket 2.0 03:34:10 10° S 03:38:34 70° WSW 03:43:00 10° NNW
EO 1 Delta rocket 4.2 03:33:37 10° NNE 03:38:40 65° E 03:44:51 10° S
Cosmos 1975 2.8 03:34:47 10° S 03:38:52 90° SE 03:43:00 10° N
H-2A R/B 4.4 03:34:47 10° WSW 03:39:16 44° S 03:57:08 15° ESE
Cosmos 1763 Rocket 3.8 03:37:35 10° S 03:42:19 40° ESE 03:47:01 10° NNE
Cosmos 2297 Rocket 2.2 03:37:36 10° NNW 03:43:17 88° WSW 03:48:55 10° SSE
Lacrosse 5 rocket 2.1 03:40:19 10° NW 03:43:48 42° SW 03:47:12 10° SSE
Cosmos 1153 Rocket 4.4 03:39:21 10° S 03:45:32 77° E 03:51:40 10° N
Cosmos 2082 4.2 03:41:34 10° NNW 03:47:06 60° WSW 03:52:36 10° S
FengYun 1-2 T 4.3 03:41:54 10° SSE 03:47:32 89° WSW 03:53:10 10° NNW
Cosmos 2360 4.4 03:44:20 10° S 03:49:46 47° ESE 03:55:14 10° NNE
Cosmos 1515 3.6 03:48:53 10° N 03:52:41 61° E 03:55:57 13° SSE
Cosmos 1447 Rocket 4.5 03:48:13 10° N 03:54:33 70° E 04:00:52 10° SSE
Cosmos 2150 Rocket 4.0 03:50:09 10° N 03:55:16 63° ENE 03:59:25 16° SSE
Cosmos 2084 3.4 03:54:15 10° NNW 03:58:24 82° WSW 04:01:27 19° SSE
Cosmos 1825 Rocket 4.4 03:56:54 10° NNE 04:00:47 30° E 04:01:32 28° E
Cosmos 1898 Rocket 3.4 03:57:13 10° NNW 04:02:30 80° ENE 04:06:48 15° SSE
Cosmos 1802 Rocket 4.2 03:58:18 10° SSE 04:04:27 52° E 04:10:39 10° NNE
Cosmos 2016 Rocket 4.3 04:00:47 10° SSE 04:06:30 43° E 04:12:18 10° NNE
Cosmos 841 Rocket 3.4 04:03:16 10° S 04:08:27 66° ESE 04:13:37 10° NNE
Cosmos 1743 2.6 04:05:53 10° S 04:09:45 69° E 04:13:39 10° NNE
Cosmos 1697 Rocket 4.0 04:05:26 10° SW 04:10:46 43° WNW 04:16:08 10° N
H-2A R/B 4.1 04:12:09 13° NE 04:12:09 13° NE 04:13:11 10° NE
OTV 4 3.0 04:10:01 10° WSW 04:11:30 13° SW 04:12:15 12° SSW
Orbus 7S 4.2 04:06:36 10° W 04:12:04 35° SSW 04:12:55 30° SSE
CZ-4B DEB 4.3 04:10:14 10° SSW 04:13:16 36° W 04:16:20 10° NNW
Cosmos 1953 Rocket 4.4 04:09:49 10° NNE 04:13:39 31° ENE 04:13:39 31° ENE
Cosmos 2173 Rocket 3.9 04:11:38 10° S 04:17:59 80° E 04:24:20 10° N
Cosmos 2098 Rocket 4.3 04:13:48 20° SSE 04:18:07 41° E 04:23:29 10° NNE
Cosmos 1939 Rocket 3.9 04:22:24 32° NE 04:22:24 32° NE 04:25:35 10° N
DELTA 2 R/B (1) 3.8 04:18:41 10° WNW 04:24:11 62° SSW 04:26:11 38° SSE
USA 186 2.5 04:24:27 39° SW 04:25:01 46° W 04:27:46 10° NNW
SJ-11-01 4.4 04:24:29 47° ESE 04:25:17 54° ENE 04:29:51 10° N
Cosmos 1375 Rocket 4.5 04:18:58 10° SSW 04:25:24 65° ESE 04:31:57 10° NNE
Cosmos 1066 Rocket 4.3 04:20:02 10° N 04:25:48 80° W 04:30:50 14° S
SL-16 R/B 2.3 04:21:14 10° S 04:26:39 49° ESE 04:32:06 10° NNE
Lacrosse 5 1.8 04:23:33 10° NW 04:28:37 79° SW 04:30:12 44° SSE
BREEZE-M TANK 3.7 04:21:37 10° NW 04:30:01 37° NNE 04:31:15 30° NE
Cosmos 1758 Rocket 4.3 04:27:47 10° N 04:30:56 36° NE 04:30:56 36° NE
SPOT 5 4.2 04:36:37 24° NE 04:36:37 24° NE 04:39:25 10° NNE
Cosmos 1980 Rocket 3.3 04:30:20 10° SW 04:35:42 44° WNW 04:41:09 10° N
YAOGAN 11 4.0 04:35:46 68° ESE 04:36:09 73° ENE 04:40:35 10° N
Iridium 4 Rocket 4.4 04:32:33 10° NNW 04:36:56 40° W 04:41:00 10° SSW
Cosmos 2100 Rocket 4.4 04:32:09 10° SSW 04:38:21 62° W 04:44:31 10° N
ALOS 3.9 04:35:45 10° SSW 04:39:54 32° W 04:44:04 10° NW
Cosmos 1666 4.2 04:48:56 28° N 04:48:56 28° N 04:50:49 10° N
Envisat 2.9 04:52:52 73° ENE 04:52:52 73° ENE 04:57:47 10° N
RESURS DK-1 3.7 04:49:05 10° NW 04:52:49 33° WSW 04:53:33 31° SW
Tiangong 1 3.6 04:51:47 10° WNW 04:53:02 22° WNW 04:53:02 22° WNW
OAO 2 Rocket 3.3 04:52:15 10° WNW 04:56:54 74° WSW 04:56:54 74° WSW
Tsikada Rocket 4.1 04:52:17 10° N 04:58:25 57° ENE 04:58:25 57° ENE
Cosmos 2058 Rocket 3.5 04:59:24 63° NNW 04:59:24 63° NNW 05:03:20 10° N
Cosmos 2263 Rocket 3.7 04:58:59 10° N 05:02:03 23° NE 05:02:03 23° NE
Cosmos 1340 4.3 05:03:24 10° NNW 05:06:07 33° WNW 05:06:07 33° WNW
Cosmos 1725 Rocket 3.9 05:07:38 56° SSW 05:09:04 83° W 05:15:21 10° N
ERS-1 Rocket 3.4 05:09:00 55° WSW 05:09:19 56° WSW 05:14:16 10° NNW
Cosmos 2322 Rocket 2.6 05:05:39 10° SSW 05:11:09 60° WNW 05:16:42 10° NNE
Cosmos 2233 Rocket 4.5 05:30:38 52° N 05:30:38 52° N 05:35:13 10° N
H-2A R/B 4.5 05:35:08 12° NNE 05:35:08 12° NNE 05:35:32 10° NNE
CZ-3C R/B 4.3 05:49:39 10° W 06:02:15 21° SW 06:02:33 21° SW
Milstar 3 Cent rocket 4.3 05:48:10 10° W 06:06:32 51° SSW 06:06:48 50° SSW
CENTAUR R/B 4.4 10:01:24 25° NE 10:01:24 25° NE 10:04:04 10° NE
ATLAS 5 CENTAUR R/B 4.4 10:44:03 15° N 10:44:03 15° N 10:45:10 10° N
SL-16 R/B 3.4 10:44:06 45° NE 10:44:06 45° NE 10:49:06 10° N
CZ-2D R/B 3.5 10:56:22 10° NNE 10:59:19 34° NNE 10:59:19 34° NNE
Centaur D-1A AC-31 2.9 10:38:07 10° W 11:08:27 67° S 11:13:28 10° E
Okean O Rocket 3.4 11:12:48 10° NE 11:16:13 28° E 11:16:13 28° E
Resurs 1-4 Rocket 3.2 11:12:58 10° N 11:16:12 38° N 11:16:12 38° N
Cosmos 407 Rocket 4.3 11:18:53 48° ENE 11:18:53 48° ENE 11:23:21 10° NNE
Centaur D-1AR AC-36 4.4 11:21:35 28° SSE 11:21:35 28° SSE 11:25:25 10° ESE
USA 234 3.1 11:20:18 10° NE 11:26:50 74° NW 11:27:04 73° WNW
MOS 1-B 4.3 11:31:56 10° N 11:37:21 72° NW 11:37:21 72° NW
IRS-1C Rocket 4.2 11:40:50 10° NNE 11:46:06 73° ESE 11:47:01 59° SSE
ARIANE 5 R/B 4.1 11:42:31 10° NNW 11:44:59 22° NW 11:44:59 22° NW
ARGOS Delta rocket 4.2 11:43:07 10° N 11:46:25 50° N 11:46:25 50° N
Cosmos 2285 Rocket 3.8 11:41:23 10° NNW 11:47:48 80° WSW 11:52:12 21° S
CENTAUR R/B 3.8 11:48:35 24° NW 11:48:46 24° NW 11:54:06 10° N
Meteor 1-26 Rocket 4.3 11:48:35 45° S 11:50:29 77° E 11:56:22 10° N
